| time (UTC) | temp F | wind direction | speed knots | gust knots | rain 1hr in | rain 24hr in | rain mn in | humidity % | barometer mb |
| 20260510164256 | 44 | 274 | 8.7 | 18.2 | 0.00 | 0.05 | 0.00 | 73 | 1014.5 |
| 20260510163355 | 44 | 257 | 5.2 | 13.9 | 0.00 | 0.05 | 0.00 | 74 | 1014.1 |
| 20260510162455 | 44 | 266 | 6.1 | 19.1 | 0.00 | 0.05 | 0.00 | 74 | 1014.1 |
| 20260510161555 | 44 | 270 | 7.0 | 17.4 | 0.00 | 0.05 | 0.00 | 74 | 1013.9 |
| 20260510160655 | 44 | 287 | 5.2 | 20.0 | 0.00 | 0.05 | 0.00 | 74 | 1013.9 |
| 20260510155755 | 44 | 272 | 11.3 | 18.2 | 0.00 | 0.05 | 0.00 | 74 | 1013.5 |
| 20260510154855 | 44 | 294 | 7.0 | 15.6 | 0.00 | 0.05 | 0.00 | 75 | 1013.6 |
| 20260510153955 | 43 | 265 | 7.0 | 15.6 | 0.00 | 0.05 | 0.00 | 75 | 1013.5 |
| 20260510152155 | 43 | 277 | 5.2 | 14.8 | 0.00 | 0.05 | 0.00 | 76 | 1013.6 |
| 20260510151255 | 43 | 305 | 4.3 | 18.2 | 0.00 | 0.05 | 0.00 | 76 | 1013.5 |
| 20260510150355 | 44 | 288 | 6.1 | 18.2 | 0.00 | 0.05 | 0.00 | 76 | 1013.2 |
| 20260510145455 | 43 | 260 | 5.2 | 18.2 | 0.00 | 0.05 | 0.00 | 77 | 1013.3 |
| 20260510144555 | 43 | 295 | 6.1 | 16.5 | 0.00 | 0.05 | 0.00 | 79 | 1013.0 |
| 20260510143655 | 43 | 280 | 7.8 | 18.2 | 0.00 | 0.05 | 0.00 | 80 | 1013.0 |
| 20260510142756 | 43 | 263 | 4.3 | 14.8 | 0.00 | 0.05 | 0.00 | 79 | 1013.2 |
| 20260510140955 | 43 | 255 | 9.6 | 17.4 | 0.00 | 0.05 | 0.00 | 79 | 1012.8 |
| 20260510140055 | 43 | 295 | 7.0 | 16.5 | 0.00 | 0.05 | 0.00 | 82 | 1012.8 |
| 20260510135155 | 43 | 298 | 5.2 | 15.6 | 0.00 | 0.05 | 0.00 | 82 | 1012.4 |
| 20260510134255 | 43 | 287 | 4.3 | 13.0 | 0.00 | 0.05 | 0.00 | 80 | 1012.2 |
| 20260510133355 | 43 | 267 | 7.0 | 13.9 | 0.00 | 0.05 | 0.00 | 80 | 1012.4 |
| 20260510131555 | 43 | 248 | 6.1 | 15.6 | 0.00 | 0.05 | 0.00 | 80 | 1012.3 |
| 20260510130655 | 43 | 248 | 5.2 | 18.2 | 0.00 | 0.05 | 0.00 | 78 | 1012.1 |
| 20260510125755 | 43 | 234 | 8.7 | 19.1 | 0.00 | 0.05 | 0.00 | 78 | 1011.9 |
| 20260510124855 | 43 | 261 | 7.0 | 20.9 | 0.00 | 0.05 | 0.00 | 78 | 1011.8 |
| 20260510123955 | 43 | 244 | 5.2 | 15.6 | 0.00 | 0.05 | 0.00 | 78 | 1011.8 |
| 20260510123055 | 43 | 270 | 7.0 | 15.6 | 0.00 | 0.05 | 0.00 | 77 | 1011.5 |
| 20260510122155 | 43 | 274 | 7.8 | 18.2 | 0.00 | 0.05 | 0.00 | 76 | 1011.3 |
| 20260510121255 | 43 | 265 | 7.8 | 20.0 | 0.00 | 0.05 | 0.00 | 76 | 1011.1 |
| 20260510115455 | 43 | 269 | 7.8 | 21.7 | 0.00 | 0.05 | 0.19 | 76 | 1010.6 |
| 20260510113655 | 43 | 233 | 11.3 | 16.5 | 0.00 | 0.05 | 0.19 | 79 | 1010.5 |
| 20260510111855 | 43 | 265 | 9.6 | 20.0 | 0.00 | 0.05 | 0.19 | 80 | 1010.0 |
| 20260510110955 | 43 | 260 | 7.0 | 15.6 | 0.00 | 0.05 | 0.19 | 78 | 1010.2 |
| 20260510110054 | 43 | 277 | 9.6 | 21.7 | 0.00 | 0.05 | 0.19 | 77 | 1010.0 |
| 20260510105155 | 43 | 251 | 11.3 | 23.5 | 0.00 | 0.05 | 0.19 | 77 | 1009.6 |
| 20260510104255 | 43 | 263 | 10.4 | 22.6 | 0.00 | 0.05 | 0.19 | 78 | 1009.4 |
| 20260510103355 | 43 | 268 | 8.7 | 18.2 | 0.00 | 0.05 | 0.19 | 78 | 1009.4 |
| 20260510102455 | 43 | 263 | 5.2 | 15.6 | 0.00 | 0.05 | 0.19 | 78 | 1009.5 |
| 20260510101555 | 43 | 245 | 8.7 | 22.6 | 0.00 | 0.05 | 0.19 | 77 | 1009.5 |
| 20260510100655 | 43 | 232 | 7.8 | 20.9 | 0.00 | 0.05 | 0.19 | 77 | 1009.0 |
| 20260510095754 | 43 | 241 | 9.6 | 19.1 | 0.00 | 0.05 | 0.19 | 78 | 1008.4 |
| 20260510093954 | 43 | 293 | 7.0 | 14.8 | 0.00 | 0.05 | 0.19 | 78 | 1008.2 |
| 20260510093054 | 43 | 245 | 8.7 | 18.2 | 0.00 | 0.05 | 0.19 | 77 | 1007.9 |
| 20260510091255 | 43 | 246 | 7.8 | 21.7 | 0.00 | 0.05 | 0.19 | 78 | 1008.1 |
| 20260510090354 | 43 | 223 | 6.1 | 17.4 | 0.00 | 0.05 | 0.19 | 78 | 1008.0 |
| 20260510085454 | 43 | 235 | 7.8 | 23.5 | 0.00 | 0.05 | 0.19 | 80 | 1007.3 |
| 20260510083654 | 43 | 280 | 9.6 | 28.7 | 0.00 | 0.05 | 0.19 | 79 | 1006.6 |
| 20260510081855 | 43 | 249 | 11.3 | 29.5 | 0.00 | 0.05 | 0.19 | 78 | 1006.0 |
| 20260510080954 | 43 | 241 | 13.9 | 29.5 | 0.00 | 0.05 | 0.19 | 78 | 1005.9 |
| 20260510080054 | 43 | 248 | 11.3 | 23.5 | 0.00 | 0.05 | 0.19 | 79 | 1005.6 |
| 20260510075155 | 43 | 271 | 13.0 | 23.5 | 0.00 | 0.05 | 0.19 | 79 | 1005.5 |
| 20260510074254 | 43 | 241 | 14.8 | 23.5 | 0.00 | 0.05 | 0.19 | 80 | 1005.4 |
| 20260510073354 | 43 | 259 | 12.2 | 20.0 | 0.00 | 0.05 | 0.19 | 80 | 1005.8 |
| 20260510072454 | 43 | 272 | 11.3 | 31.3 | 0.00 | 0.05 | 0.19 | 77 | 1006.0 |
| 20260510070654 | 43 | 286 | 10.4 | 23.5 | 0.00 | 0.05 | 0.19 | 82 | 1005.5 |
| 20260510065754 | 43 | 253 | 8.7 | 20.9 | 0.00 | 0.05 | 0.19 | 82 | 1005.1 |
| 20260510063054 | 43 | 249 | 5.2 | 19.1 | 0.00 | 0.05 | 0.19 | 83 | 1004.7 |
| 20260510062154 | 43 | 290 | 11.3 | 19.1 | 0.00 | 0.05 | 0.19 | 83 | 1004.5 |
| 20260510061254 | 43 | 278 | 11.3 | 19.1 | 0.00 | 0.05 | 0.19 | 83 | 1004.0 |
| 20260510053654 | 43 | 257 | 10.4 | 18.2 | 0.00 | 0.05 | 0.19 | 84 | 1003.5 |
| 20260510052754 | 44 | 285 | 6.1 | 18.2 | 0.00 | 0.05 | 0.19 | 84 | 1003.5 |
| 20260510051854 | 43 | 257 | 7.0 | 20.0 | 0.00 | 0.05 | 0.19 | 85 | 1003.2 |
| 20260510045154 | 43 | 277 | 8.7 | 18.2 | 0.00 | 0.05 | 0.19 | 89 | 1002.5 |
| 20260510044254 | 43 | 256 | 7.0 | 20.0 | 0.00 | 0.05 | 0.19 | 87 | 1002.5 |
| 20260510043354 | 44 | 245 | 12.2 | 19.1 | 0.00 | 0.05 | 0.19 | 82 | 1002.5 |
| 20260510042454 | 45 | 287 | 9.6 | 20.0 | 0.00 | 0.05 | 0.18 | 75 | 1002.1 |
| 20260510041554 | 45 | 263 | 7.0 | 17.4 | 0.03 | 0.05 | 0.18 | 73 | 1001.8 |
| 20260510040654 | 46 | 233 | 9.6 | 20.0 | 0.03 | 0.05 | 0.18 | 73 | 1001.5 |
| 20260510035754 | 46 | 258 | 9.6 | 20.0 | 0.03 | 0.05 | 0.18 | 73 | 1001.6 |
| 20260510034854 | 46 | 282 | 12.2 | 23.5 | 0.03 | 0.05 | 0.18 | 73 | 1001.3 |
| 20260510033954 | 46 | 259 | 5.2 | 22.6 | 0.03 | 0.05 | 0.18 | 74 | 1001.0 |
| 20260510033054 | 45 | 286 | 13.0 | 34.8 | 0.03 | 0.05 | 0.18 | 73 | 1000.9 |
| 20260510032154 | 45 | 244 | 17.4 | 22.6 | 0.00 | 0.02 | 0.16 | 76 | 1000.5 |
| 20260510031254 | 46 | 235 | 8.7 | 18.2 | 0.00 | 0.02 | 0.16 | 76 | 1000.6 |
| 20260510030354 | 46 | 255 | 13.0 | 19.1 | 0.00 | 0.02 | 0.16 | 77 | 1000.8 |
| 20260510024554 | 46 | 241 | 8.7 | 20.9 | 0.00 | 0.02 | 0.16 | 81 | 1000.2 |
| 20260510023654 | 46 | 265 | 7.0 | 18.2 | 0.00 | 0.02 | 0.16 | 83 | 1000.2 |
| 20260510022754 | 47 | 288 | 12.2 | 18.2 | 0.00 | 0.02 | 0.16 | 84 | 999.9 |
| 20260510021854 | 47 | 219 | 7.0 | 15.6 | 0.00 | 0.02 | 0.16 | 88 | 1000.0 |
| 20260510020953 | 46 | 241 | 9.6 | 16.5 | 0.00 | 0.02 | 0.16 | 92 | 999.7 |
| 20260510015154 | 45 | 269 | 12.2 | 29.5 | 0.00 | 0.02 | 0.16 | 82 | 999.4 |
| 20260510014253 | 48 | 269 | 11.3 | 29.5 | 0.00 | 0.02 | 0.16 | 79 | 999.2 |
| 20260510013354 | 47 | 240 | 13.9 | 20.9 | 0.00 | 0.02 | 0.16 | 85 | 999.1 |
| 20260510012454 | 46 | 236 | 5.2 | 23.5 | 0.00 | 0.02 | 0.16 | 81 | 999.0 |
| 20260510010653 | 47 | 262 | 13.0 | 20.0 | 0.00 | 0.02 | 0.16 | 74 | 998.6 |
| 20260510005753 | 48 | 260 | 8.7 | 26.9 | 0.00 | 0.02 | 0.16 | 74 | 999.0 |
| 20260510004853 | 48 | 271 | 13.0 | 18.2 | 0.00 | 0.02 | 0.16 | 76 | 998.7 |
| 20260510003954 | 48 | 240 | 7.8 | 20.0 | 0.00 | 0.02 | 0.16 | 78 | 999.0 |
| 20260510002154 | 48 | 254 | 6.1 | 16.5 | 0.00 | 0.02 | 0.16 | 81 | 998.7 |
| 20260510001253 | 47 | 245 | 7.0 | 24.3 | 0.00 | 0.02 | 0.16 | 83 | 998.6 |
| 20260509235453 | 47 | 228 | 8.7 | 20.0 | 0.00 | 0.02 | 0.16 | 82 | 998.1 |
| 20260509233654 | 47 | 212 | 7.8 | 18.2 | 0.00 | 0.02 | 0.16 | 81 | 997.8 |
| 20260509232753 | 47 | 232 | 7.8 | 20.9 | 0.00 | 0.02 | 0.16 | 79 | 998.0 |
| 20260509231853 | 47 | 233 | 13.9 | 18.2 | 0.00 | 0.02 | 0.16 | 78 | 998.1 |
| 20260509230953 | 47 | 247 | 9.6 | 22.6 | 0.00 | 0.02 | 0.16 | 75 | 997.8 |
| 20260509230053 | 47 | 243 | 12.2 | 21.7 | 0.00 | 0.02 | 0.16 | 75 | 997.5 |
| 20260509225153 | 47 | 258 | 8.7 | 17.4 | 0.00 | 0.02 | 0.16 | 73 | 997.4 |
| 20260509224253 | 47 | 234 | 5.2 | 17.4 | 0.00 | 0.02 | 0.16 | 72 | 997.3 |
| 20260509223353 | 48 | 240 | 5.2 | 20.9 | 0.00 | 0.02 | 0.16 | 71 | 996.9 |
| 20260509222453 | 48 | 270 | 9.6 | 18.2 | 0.00 | 0.02 | 0.16 | 71 | 996.9 |
| 20260509221553 | 47 | 213 | 7.0 | 18.2 | 0.00 | 0.02 | 0.16 | 75 | 996.6 |
| 20260509220653 | 47 | 241 | 8.7 | 23.5 | 0.00 | 0.02 | 0.16 | 74 | 996.3 |
| 20260509215753 | 47 | 270 | 10.4 | 23.5 | 0.00 | 0.02 | 0.16 | 76 | 996.4 |
| 20260509214853 | 47 | 260 | 9.6 | 18.2 | 0.01 | 0.02 | 0.16 | 77 | 996.4 |
| 20260509213953 | 47 | 235 | 10.4 | 20.0 | 0.02 | 0.02 | 0.16 | 77 | 996.6 |
| 20260509213053 | 47 | 258 | 9.6 | 28.7 | 0.02 | 0.02 | 0.16 | 76 | 996.5 |
| 20260509212153 | 47 | 295 | 13.0 | 24.3 | 0.02 | 0.02 | 0.16 | 78 | 996.3 |
| 20260509211253 | 47 | 272 | 9.6 | 23.5 | 0.02 | 0.02 | 0.16 | 79 | 995.6 |
| 20260509210353 | 47 | 252 | 11.3 | 29.5 | 0.02 | 0.02 | 0.16 | 79 | 995.7 |
| 20260509204554 | 47 | 278 | 13.0 | 24.3 | 0.00 | 0.00 | 0.14 | 84 | 995.3 |
| 20260509202753 | 47 | 231 | 14.8 | 21.7 | 0.00 | 0.00 | 0.14 | 83 | 995.2 |
| 20260509201853 | 47 | 290 | 11.3 | 24.3 | 0.00 | 0.00 | 0.14 | 82 | 994.7 |
| 20260509200953 | 47 | 239 | 10.4 | 24.3 | 0.00 | 0.00 | 0.14 | 85 | 994.3 |
| 20260509200053 | 47 | 248 | 13.0 | 24.3 | 0.00 | 0.00 | 0.14 | 85 | 994.3 |
| 20260509195153 | 47 | 272 | 13.0 | 29.5 | 0.00 | 0.00 | 0.00 | 84 | 994.1 |
| 20260509194254 | 47 | 244 | 11.3 | 23.5 | 0.00 | 0.00 | 0.00 | 84 | 993.8 |
| 20260509193353 | 48 | 228 | 13.0 | 20.0 | 0.00 | 0.00 | 0.00 | 84 | 993.7 |
| 20260509192453 | 48 | 261 | 9.6 | 21.7 | 0.00 | 0.00 | 0.00 | 83 | 993.3 |
| 20260509185753 | 48 | 282 | 10.4 | 23.5 | 0.00 | 0.00 | 0.00 | 87 | 993.0 |
| 20260509184853 | 48 | 271 | 7.0 | 26.9 | 0.00 | 0.00 | 0.00 | 90 | 993.0 |
| 20260509183953 | 48 | 250 | 14.8 | 23.5 | 0.00 | 0.00 | 0.00 | 93 | 992.6 |
| 20260509183053 | 47 | 279 | 12.2 | 22.6 | 0.00 | 0.00 | 0.00 | 95 | 992.6 |
| 20260509180353 | 48 | 281 | 9.6 | 23.5 | 0.00 | 0.00 | 0.00 | 91 | 992.4 |
| 20260509175453 | 48 | 257 | 11.3 | 20.9 | 0.00 | 0.00 | 0.00 | 90 | 991.9 |
| 20260509174552 | 48 | 241 | 9.6 | 20.9 | 0.00 | 0.00 | 0.00 | 90 | 991.8 |
| 20260509173653 | 49 | 268 | 14.8 | 23.5 | 0.00 | 0.00 | 0.00 | 90 | 991.4 |
| 20260509172753 | 49 | 244 | 7.8 | 17.4 | 0.00 | 0.00 | 0.00 | 90 | 991.5 |
| 20260509171853 | 50 | 220 | 10.4 | 16.5 | 0.00 | 0.00 | 0.00 | 88 | 991.5 |
| 20260509170952 | 50 | 273 | 11.3 | 18.2 | 0.00 | 0.00 | 0.00 | 88 | 991.1 |
| 20260509170053 | 50 | 229 | 9.6 | 20.9 | 0.00 | 0.00 | 0.00 | 88 | 991.1 |
| 20260509165152 | 50 | 186 | 9.6 | 23.5 | 0.00 | 0.00 | 0.00 | 89 | 990.9 |